www.pogodaiklimat.ru

Погода и климат >> Архив погоды >> Боливия >> San Ramon


ПОГОДА в San Ramon

  • Прогноз погоды в San Ramon
  • Монитор погоды в San Ramon
  • Климат города

АРХИВ ПОГОДЫ в San Ramon

Время (UTC), дата Ветер
(напр.,м/с)
 
Видим.   Явления Облачность Т
(С)
Тd
(С)
f
(%)
Тe
(С)
Тes
(С)
Комфортность P
(гПа)
Po
(гПа)
Тmin
(С)
Tmax
(С)
R
(мм)
R24
(мм)
S
(см)
18 11.06 С 6 15 км 6/6 500 м
[Cu med, cong]
+30.9 +22.9 62 +41 +42 опасность
перегрева
1011.3 995.5
21 11.06 СЗ 4 8000 м осадки на расстоянии 8/5 500 м
[Cb cap Ci]
+30.5 +22.9 64 +40 +41 очень
душно
1009.6 993.8 +32.3
12 12.06 штиль 0 15 км 9/0 2000 м
[Ac trans]
+23.0 +22.3 96 +31 +33 очень
душно
1013.2 997.0 +21.5
15 12.06 С 3 15 км 9/1 500 м
[Cu hum Ac trans]
+28.0 +23.2 75 +38 +42 очень
душно
1014.4 998.5
18 12.06 СЗ 4 15 км 9/5 500 м
[Cu med, cong Ac trans]
+31.0 +22.7 61 +41 +42 опасность
перегрева
1013.2 997.4
21 12.06 СЗ 2 15 км 9/3 500 м
[Cu med, cong Ac trans]
+31.1 +22.7 61 +41 +41 опасность
перегрева
1011.8 996.0 +31.9
12 13.06 ЮВ 4 15 км 10/9 240 м
[Frnb As op]
+23.2 +22.5 96 +32 +32 очень
душно
1015.3 999.1 +20.9
15 13.06 ЮВ 8 7000 м осадки на расстоянии 10/9 180 м
[Frnb As op]
+21.5 +20.8 96 +27 +27 душно 1017.2 1001.0
18 13.06 ЮВ 5 15 км 9/5 450 м
[Sc Ac trans]
+26.0 +20.2 70 +32 +33 очень
душно
1015.4 999.5
21 13.06 ЮВ 5 15 км 9/3 450 м
[Sc Ac trans Ci]
+25.0 +19.1 70 +30 +30 душно 1014.5 998.5 +27.3
12 14.06 ЮВ 3 15 км 9/0 2000 м
[Ac trans]
+18.1 +16.3 89 +18 +19 1017.9 1001.5 +17.1
15 14.06 ЮВ 5 15 км 9/4 600 м
[Sc Ac trans]
+19.3 +13.0 67 +20 +22 1018.7 1002.2
18 14.06 ЮВ 3 15 км 9/3 600 м
[Sc Ac trans]
+21.6 +15.1 67 +25 +28 комфорт 1017.2 1001.0
21 14.06 ЮВ 4 15 км 9/0 2000 м
[Ac trans]
+21.6 +15.1 67 +25 +25 комфорт 1015.7 999.5 +23.5
12 15.06 ЮВ 6 15 км 5/0 2000 м
[Ac trans]
+17.1 +12.7 75 +16 +17 1018.6 1002.0 +11.3
15 15.06 ЮВ 8 15 км 4/0 2000 м
[Ac trans]
+21.0 +11.1 53 +23 +25 комфорт 1020.2 1003.7
18 15.06 ЮВ 8 15 км 3/0 2000 м
[Ac trans]
+24.4 +14.0 52 +27 +29 жарко 1018.3 1002.0
21 15.06 ЮВ 6 15 км 4/0
[Ci fib]
+22.5 +11.8 51 +25 +25 комфорт 1017.3 1001.0 +24.9
12 16.06 ЮВ 3 15 км 4/0
[Ci fib]
+13.5 +7.8 68 +12 +14 1020.9 1004.1 +12.1
15 16.06 ЮВ 9 15 км 4/0
[Ci fib]
+18.7 +8.5 51 +18 +19 1021.3 1004.8
18 16.06 ЮВ 5 15 км 8/0
[Ci]
+22.0 +11.1 50 +24 +29 комфорт 1019.1 1002.8
21 16.06 ЮВ 4 15 км 6/0
[Ci]
+23.5 +13.9 55 +26 +27 жарко 1017.4 1001.1 +24.1
12 17.06 ЮВ 3 15 км 8/0
[Ci]
+14.0 +9.5 74 +13 +14 1019.9 1003.1 +12.3
15 17.06 ЮВ 8 15 км 8/0
[Ci]
+20.5 +10.0 51 +22 +24 комфорт 1020.6 1004.1
18 17.06 ЮВ 5 15 км 8/0
[Ci]
+23.6 +12.8 51 +26 +31 жарко 1019.3 1003.0
21 17.06 ЮВ 4 15 км 4/0
[Ci fib]
+25.1 +14.7 52 +28 +28 жарко 1017.7 1001.5 +25.7
12 18.06 ЮВ 3 15 км ясно +14.5 +11.0 80 +14 +15 1019.3 1002.6 +12.1
15 18.06 ЮВ 5 15 км ясно +21.6 +13.1 58 +24 +30 комфорт 1020.3 1003.9

 

Местоположение метеостанции San Ramon (Боливия): широта -13.30 долгота -64.70 высота над уровнем моря 140 м.

В архиве по умолчанию представлена погода в San Ramon за последнюю неделю. Архивные данные за месяц целиком и за предыдущие месяцы, начиная с января 2011 года, Вы можете получить, выбрав интересующий диапазон дат из раскрывающегося списка и нажав кнопку "Ввод!".


*Определитесь, кто Вы:
робот инопланетянин человек

Внимание! Время в таблицах - всемирное. Для получения местного времени необходимо прибавить поправку, которая в San Ramon равна -4 ч.

Смотрите также архив погоды в соседних городах и на ближайших метеорологических станциях:

Погода в San Joaquin (Боливия) (29 км)
Погода в Magdalena (Боливия) (64 км)
Погода в Baures (Боливия) (93 км)
Погода в Santa Ana (Боливия) (94 км)
Погода в Trinidad (Боливия) (169 км)
Погода в San Ignacio De Moxo (Боливия) (204 км)
Погода в Santa Rosa (Боливия) (257 км)
Погода в San Borja (Боливия) (291 км)
Погода в Riberalta (Боливия) (298 км)
Погода в Reyes (Боливия) (311 км)

Пояснения к столбцам:

Ветер - указаны скорость ветра в м/с - средняя за 10 мин, порывы в срок и между сроками (в фигурных скобках) и направление, откуда дует ветер: С - северный, СВ - северо-восточный, В - восточный, ЮВ - юго-восточный, Ю - южный, ЮЗ - юго-западный, З - западный, СЗ - северо-западный.
Видимость - горизонтальная дальность видимости в метрах или километрах. При видимости от 1 до 10 км при отсутствии осадков обычно наблюдается дымка, при ухудшении видимости до 1 км и менее - туман. В сухую погоду видимость может ухудшаться дымом, пылью или мглою.
Явления - указаны атмосферные явления, наблюдавшиеся в срок или в последний час перед сроком; фигурными скобками обозначены явления, наблюдавшиеся между сроками (за 1-3 часа до срока); квадратными скобками обозначены град или гололедные отложения с указанием их диаметра в мм.
Облачность - указаны через наклонную черту общая и нижняя облачность в баллах и высота нижней границы облаков в метрах; квадратными скобками обозначены формы облаков: Ci - перистые, Cs - перисто-слоистые, Cc - перисто-кучевые, Ac - высококучевые, As - высокослоистые, Sc - слоисто-кучевые, Ns - слоисто-дождевые, Cu - кучевые, Cb - кучево-дождевые. Подробнее классификацию облаков см. в Атласе облаков (PDF).
T - Температура воздуха - температура, измеренная на высоте 2 м над землей.
Td - Температура точки росы - температура, при понижении до которой содержащийся в воздухе водяной пар достигнет насыщения.
f - Относительная влажность воздуха - влажноcть воздуха, измеренная на высоте 2 м над землей.
Te - Эффективная температура - температура, которую ощущает одетый по сезону человек в тени. Характеристика душности погоды. При расчете учитывается влияние влажности воздуха и скорости ветра на теплоощущения человека.
Tes - Эффективная температура на солнце - температура, которую ощущает человек, с поправкой на солнечный нагрев. Характеристика знойности погоды. Зависит от высоты солнца над горизонтом, облачности и скорости ветра. Ночью, в пасмурную погоду, а также при ветре 12 м/с и более поправка равна нулю.
P - Атмосферное давление - приведенное к уровню моря атмосферное давление.
Po - Атмосферное давление - измеренное на уровне метеостанции атмосферное давление.
Tmin - Минимальная температура - минимум температуры воздуха на высоте 2 м над землей.
Tmax - Максимальная температура - максимум температуры воздуха на высоте 2 м над землей.
R - Количество осадков - Количество выпавших осадков за период времени, мм. При наведении курсора мыши на число - период времени, за который выпало указанное количество осадков.
R24 - Количество осадков - Количество выпавших осадков за 24 часа, мм.
S - Снежный покров - Высота снежного покрова, см. При наведении курсора мыши на число - состояние снежного покрова и степень покрытия местности в баллах.